{"data":{"norad_id":65915,"epoch":"2026-05-24T11:49:09.935040Z","epoch_age_seconds":112170,"freshness":"FRESH","line1":"1 65915U 25225F   26144.49247610  .00022829  00000+0  78055-3 0  9992","line2":"2 65915  53.1581 173.6181 0000996  81.5283 278.5830 15.30198711 36018","mean_motion":15.30198711,"eccentricity":9.96e-5,"inclination_deg":53.1581,"raan_deg":173.6181,"arg_perigee_deg":81.5283,"mean_anomaly_deg":278.583,"bstar":0.00078055,"rev_number":3601,"period_min":94.105424978364,"perigee_km":474.53632389423,"apogee_km":475.90151239313,"semimajor_km":6853.3559181437,"source":"CELESTRAK","updated_at":"2026-05-25T13:38:20.986714Z"}}